Murcia Airport, Spain

3:01 AM CET on February 08, 2016 (GMT +0100)
AVILESES | | Change Station
CLOSE
Current Station
Personal Weather Station
Location: San Javier, REGIóN DE MURCIA
Elevation: 331 ft
Nearby Weather Stations

Elev 331 ft 37.84 °N, 0.91 °W | Updated 2 seconds ago

Partly Cloudy
Partly Cloudy
54.1 °F
Feels Like 54.1 °F
N
0.9
Wind Variable Wind from SW
Gusts 2.5 mph

Today
High -- | Low -- °F
--% Chance of Precip.
Yesterday
High -- | Low -- °F
Precip. -- in
Pressure 30.24 in
Visibility 6.2 miles
Clouds Few 2000 ft
Dew Point -25 °F
Humidity 3%
Rainfall 0.00 in
Snow Depth Not available.
8:01 AM 6:33 PM
Waning Crescent, 0% visible
METAR LEAL 080130Z 27006KT 210V300 9999 FEW020 14/02 Q1024 NOSIG
Pressure 30.24 in
Visibility 6.2 miles
Clouds Few 2000 ft
Dew Point -25 °F
Humidity 3%
Rainfall 0.00 in
Snow Depth Not available.
8:01 AM 6:33 PM
Waning Crescent, 0% visible
METAR LEAL 080130Z 27006KT 210V300 9999 FEW020 14/02 Q1024 NOSIG

10-Day Weather Forecast

Almanac

Astronomy

Feb. 08, 2016 Rise Set
Actual Time
Civil Twilight
Nautical Twilight
Astronomical Twilight
Moon
Length of Visible Light
Length of Day
Tomorrow will be .
, % of the Moon is Illuminated

Today's Extremes

Country Highs Country Lows

Community

WunderPhotos

Upload Photos

1,891,363 photos uploaded!

WunderBlog® & News

Nearby

Air Quality

  Air Quality AQ Index Pollutant
Not available.

Snow Depth

Station Depth Elevation

Earthquake Activity

City Distance Mag. Time & Date
Minimum magnitude displayed is 2.5.

Coastal Water Temperatures

Place Temperature

Stations

Nearby Weather Stations

Station Location Temp. Windchill Dew Point Humidity Wind Precip. Elev Updated Type